Change the Weather History Date:

Friday, November 16, 2012

  Actual Average (K3TH) Record (K3TH)
Temperature  
Mean Temperature 32 °F -  
Max Temperature 35 °F 39 °F 50 °F (1999)
Min Temperature 28 °F 30 °F 18 °F (1997)
Degree Days  
Heating Degree Days 34    
Moisture  
Dew Point 29 °F    
Average Humidity 95    
Maximum Humidity 100    
Minimum Humidity 89    
Precipitation  
Precipitation 0.00 in - - ()
Sea Level Pressure  
Sea Level Pressure 29.88 in    
Wind  
Wind Speed 6 mph (SSW)    
Max Wind Speed 12 mph    
Max Gust Speed -    
Visibility 10 miles    
Events Snow    
Averages and records for this station are not official NWS values.
T = Trace of Precipitation, MM = Missing Value Source: NWS Daily Summary

Daily Weather History Graph

Daily Weather History Graph

Search for Another Location

Airport or City:

Trip Planner

Search our weather history database for the weather conditions in past years. The results will help you decide how hot, cold, wet, or windy it might be!

Date:

Astronomy

Nov. 16, 2012 Rise Set
Actual Time 6:49 AM PST 4:04 PM PST
Civil Twilight 6:16 AM PST 4:38 PM PST
Nautical Twilight 5:38 AM PST 5:15 PM PST
Astronomical Twilight 5:02 AM PST 5:52 PM PST
Moon 9:51 AM PST (11/16) 7:06 PM PST (11/16)
Length of Visible Light 10h 22m
Length of Day
9h 15m
Waxing Crescent, 12% of the Moon is Illuminated
Nov 16
Waxing Crescent
Nov 20
First Quarter
Nov 28
Full
Dec 6
Last Quarter
Dec 13
New

Hourly Weather History & Observations

Time (PST) Temp. Windchill Dew Point Humidity Pressure Visibility Wind Dir Wind Speed Gust Speed Precip Events Conditions
12:53 AM 28.9 °F 19.2 °F 28.0 °F 96% 29.86 in 10.0 mi WSW 11.5 mph - N/A   Overcast
1:53 AM 28.9 °F - 28.0 °F 96% 29.86 in 10.0 mi Calm Calm - N/A   Overcast
2:02 AM 28.4 °F 24.6 °F 28.4 °F 100% 29.94 in 10.0 mi SSW 3.5 mph - N/A   Overcast
2:53 AM 28.9 °F 21.9 °F 28.0 °F 96% 29.86 in 10.0 mi SSW 6.9 mph - N/A   Overcast
3:53 AM 28.0 °F 22.8 °F 27.0 °F 96% 29.99 in 10.0 mi SSW 4.6 mph - N/A   Partly Cloudy
4:20 AM 28.4 °F 22.2 °F 26.6 °F 93% 29.92 in 10.0 mi South 5.8 mph - N/A   Scattered Clouds
4:53 AM 28.0 °F 21.7 °F 27.0 °F 96% 30.00 in 10.0 mi South 5.8 mph - N/A   Partly Cloudy
5:53 AM 28.0 °F 21.7 °F 28.0 °F 100% 29.99 in 10.0 mi South 5.8 mph - N/A   Mostly Cloudy
6:53 AM 28.9 °F 21.9 °F 28.0 °F 96% 29.98 in 10.0 mi South 6.9 mph - N/A   Overcast
7:02 AM 28.4 °F 23.3 °F 28.4 °F 100% 29.91 in 8.0 mi Variable 4.6 mph - N/A   Overcast
7:53 AM 30.0 °F 24.1 °F 28.0 °F 92% 29.85 in 10.0 mi Variable 5.8 mph - N/A   Overcast
8:27 AM 30.2 °F 24.3 °F 28.4 °F 93% 29.92 in 7.0 mi South 5.8 mph - 0.00 in Snow Light Snow
8:53 AM 32.0 °F 27.5 °F 30.0 °F 92% 29.85 in 10.0 mi Variable 4.6 mph - 0.00 in   Overcast
9:53 AM 33.1 °F 30.0 °F 30.9 °F 92% 29.86 in 10.0 mi Variable 3.5 mph - N/A   Overcast
10:53 AM 33.1 °F 27.7 °F 30.9 °F 92% 29.86 in 10.0 mi South 5.8 mph - N/A   Overcast
11:53 AM 33.1 °F 28.7 °F 32.0 °F 96% 29.84 in 10.0 mi Variable 4.6 mph - N/A   Overcast
12:53 PM 35.1 °F 30.1 °F 33.1 °F 92% 29.83 in 10.0 mi SSW 5.8 mph - N/A   Overcast
1:53 PM 35.1 °F 29.3 °F 32.0 °F 89% 29.83 in 10.0 mi SW 6.9 mph - N/A   Scattered Clouds
2:53 PM 34.0 °F 27.2 °F 30.9 °F 89% 29.83 in 10.0 mi SW 8.1 mph - N/A   Clear
3:53 PM 32.0 °F 25.6 °F 30.0 °F 92% 29.85 in 10.0 mi SSW 6.9 mph - N/A   Clear
4:53 PM 30.9 °F 25.2 °F 30.9 °F 100% 29.84 in 9.0 mi South 5.8 mph - N/A   Clear
5:53 PM 30.9 °F 25.2 °F 30.0 °F 96% 29.85 in 10.0 mi SSW 5.8 mph - N/A   Clear
6:53 PM 30.9 °F 26.2 °F 30.0 °F 96% 29.86 in 10.0 mi SSW 4.6 mph - N/A   Clear
7:53 PM 30.9 °F 25.2 °F 28.9 °F 92% 29.85 in 10.0 mi SSW 5.8 mph - N/A   Clear
8:53 PM 30.9 °F 25.2 °F 28.9 °F 92% 29.85 in 10.0 mi South 5.8 mph - N/A   Clear
9:53 PM 30.0 °F 21.7 °F 28.9 °F 96% 29.85 in 10.0 mi South 9.2 mph - N/A   Clear
10:53 PM 30.9 °F 22.8 °F 30.0 °F 96% 29.85 in 10.0 mi South 9.2 mph - N/A   Partly Cloudy
11:53 PM 30.9 °F 22.8 °F 30.0 °F 96% 29.84 in 10.0 mi SSE 9.2 mph - N/A   Clear